Location: Unspecified
(52.4292°N, 19.3359°E)
Time: 23:02:31
(UTC+02:00)

Transit 2A Rocket - Pass Details

Date: 30 May 2024
Orbit: 583 x 910 km, 66.7° (Epoch: 12 June)

Event Time Altitude Azimuth Distance (km) Brightness Sun altitude
Rises 03:03:23 0° 210° (SSW) 3,023 - -9.5°
Reaches altitude 10° 03:05:36 10° 208° (SSW) 2,159 - -9.3°
Exits shadow 03:05:54 12° 208° (SSW) 2,038 6.5 -9.3°
Maximum altitude 03:10:30 73° 125° (SE) 789 5.1 -8.9°
Drops below altitude 10° 03:15:58 10° 42° (NE) 2,393 9.3 -8.4°
Sets 03:18:32 0° 41° (NE) 3,378 10.8 -8.1°
